This is the latest recevied weather packets stored in our database for station/object LY3FF-10. If no packets are shown the sender has not sent any weather packets the latest 10 day(s).
| Time | Temp. | Humidity | Pressure | Rain* | Wind** | Luminosity | Snow |
|---|---|---|---|---|---|---|---|
| 1787414140 | 17.22° C | 65% | 983.6 hPa | - | - | - | - |
| 1787413305 | 17.78° C | 63% | 983.4 hPa | - | - | - | - |
| 1787412555 | 17.78° C | 62% | 983.1 hPa | - | - | - | - |
| 1787411680 | 17.78° C | 61% | 982.9 hPa | - | - | - | - |
| 1787410868 | 18.33° C | 60% | 982.4 hPa | - | - | - | - |
| 1787410015 | 18.33° C | 62% | 982 hPa | - | - | - | - |
| 1787409140 | 17.78° C | 63% | 981.6 hPa | - | - | - | - |
| 1787408364 | 17.78° C | 66% | 981.2 hPa | - | - | - | - |
| 1787407635 | 17.78° C | 69% | 981 hPa | - | - | - | - |
| 1787406800 | 17.78° C | 71% | 980.6 hPa | - | - | - | - |
| 1787405915 | 17.78° C | 67% | 980 hPa | - | - | - | - |
| 1787405055 | 17.78° C | 67% | 979.5 hPa | - | - | - | - |
| 1787404320 | 17.78° C | 71% | 979.1 hPa | - | - | - | - |
| 1787403560 | 17.78° C | 76% | 978.4 hPa | - | - | - | - |
| 1787402750 | 17.78° C | 76% | 978.1 hPa | - | - | - | - |
| 1787401864 | 18.89° C | 72% | 976.9 hPa | - | - | - | - |
| 1787400968 | 18.89° C | 70% | 976.4 hPa | - | - | - | - |
| 1787400180 | 18.89° C | 69% | 976.5 hPa | - | - | - | - |
| 1787399347 | 19.44° C | 67% | 976.2 hPa | - | - | - | - |
| 1787398569 | 20.56° C | 66% | 976.3 hPa | - | - | - | - |
| 1787397775 | 21.11° C | 65% | 975.9 hPa | - | - | - | - |
| 1787397007 | 21.67° C | 64% | 975.9 hPa | - | - | - | - |
| 1787396275 | 23.89° C | 65% | 975.7 hPa | - | - | - | - |
| 1787395524 | 23.33° C | 68% | 975.7 hPa | - | - | - | - |
| 1787394750 | 22.78° C | 76% | 974.8 hPa | - | - | - | - |
* Rain since midnight (hover to see other rain measurements)
** Current wind speed in m/s (hover to see current wind gust speed)